Simultaneous Nadir Overpasses (SNOs) Predictions

Prediction of SNOs between GOES-16 and METOP-C Satellite Orbit:

Table of predicted SNOs for the next 14.0 days since TLE Epoch: 8/31/2024
Index Date Time (GOES-16) GOES-16 Lat,Lon METOP-C Lat,Lon Distance(km) Time Diff (sec)
1 09/02/2024 14:31:16 -0.04, -75.22 -0.15, -74.79 49.11 80
2 09/04/2024 02:47:39 0.05, -75.22 -0.89, -79.39 474.99 80
3 09/05/2024 02:29:41 0.04, -75.23 0.23, -74.40 94.82 80
4 09/06/2024 14:45:55 -0.05, -75.26 0.80, -78.97 422.56 80
5 09/07/2024 14:27:58 -0.04, -75.28 -0.33, -73.98 147.58 80
6 09/09/2024 02:44:20 0.04, -75.29 -0.69, -78.58 375.56 80
7 09/10/2024 02:26:22 0.04, -75.30 0.39, -73.59 194.75 80
8 09/11/2024 14:42:36 -0.04, -75.34 0.60, -78.16 322.04 80
9 09/12/2024 14:24:39 -0.03, -75.35 -0.55, -73.18 248.42 80
10 09/14/2024 02:43:40 0.03, -75.36 -0.51, -77.77 274.18 80
